FW4250 Weather Reports


Display with metric or nautical units.
time (UTC)temp
F
wind
direction
speed
MPH
gust
MPH
rain 1hr
in
rain 24hr
in
rain mn
in
humidity
%
barometer
mb
20260904172041 73 184 1.0 6.0 0.00 0.01 0.00 67 987.6
20260904171548 73 184 2.0 4.0 0.00 0.01 0.00 67 987.6
20260904171036 72 184 1.0 5.0 0.00 0.01 0.00 68 987.6
20260904170541 72 184 2.0 5.0 0.00 0.01 0.00 68 987.6
20260904170034 72 186 1.0 6.0 0.00 0.01 0.00 70 987.5
20260904165533 72 186 2.0 6.0 0.00 0.01 0.00 68 987.5
20260904165032 72 179 3.0 7.0 0.00 0.01 0.00 69 987.5
20260904164530 71 174 3.0 7.0 0.00 0.01 0.00 70 987.6
20260904164028 71 182 1.0 5.0 0.00 0.01 0.00 71 987.6
20260904163534 70 182 1.0 5.0 0.00 0.01 0.00 73 987.4
20260904163028 69 182 3.0 5.0 0.00 0.01 0.00 74 987.4
20260904162526 69 190 1.0 5.0 0.00 0.01 0.00 74 987.4
20260904162024 69 188 3.0 5.0 0.00 0.01 0.00 75 987.3
20260904161521 68 182 2.0 4.0 0.00 0.01 0.00 75 987.3
20260904161021 68 182 2.0 4.0 0.00 0.01 0.00 78 987.3
20260904160526 67 182 0.0 4.0 0.00 0.01 0.00 78 987.4
20260904160018 67 182 2.0 4.0 0.00 0.01 0.00 78 987.3
20260904155516 67 182 1.0 4.0 0.00 0.03 0.00 80 987.3
20260904155019 66 182 1.0 4.0 0.00 0.03 0.00 80 987.3
20260904154514 66 182 2.0 4.0 0.00 0.03 0.00 82 987.2
20260904154014 65 182 2.0 4.0 0.00 0.03 0.00 84 987.2
20260904153510 64 182 2.0 4.0 0.00 0.03 0.00 85 987.2
20260904153009 63 239 0.0 0.0 0.00 0.03 0.00 87 987.2
20260904152507 63 239 0.0 0.0 0.00 0.03 0.00 88 987.2
20260904152006 62 239 0.0 0.0 0.00 0.03 0.00 89 987.1
20260904151507 62 239 0.0 0.0 0.00 0.03 0.00 89 987.0
20260904151009 61 239 0.0 0.0 0.00 0.03 0.00 91 987.0
20260904150504 61 239 0.0 0.0 0.00 0.03 0.00 92 987.0
20260904150005 61 239 0.0 0.0 0.00 0.03 0.00 93 987.1
20260904145504 60 239 0.0 0.0 0.00 0.03 0.00 94 987.0
20260904145002 59 239 0.0 0.0 0.00 0.03 0.00 94 987.1
20260904144620 59 239 0.0 0.0 0.00 0.03 0.00 94 987.0
20260904144059 58 239 0.0 0.0 0.00 0.03 0.00 94 987.1
20260904143559 58 239 0.0 0.0 0.00 0.03 0.00 93 987.0
20260904143058 58 239 0.0 0.0 0.00 0.03 0.00 94 987.1
20260904142602 58 239 0.0 0.0 0.00 0.03 0.00 94 986.9
20260904142055 57 239 0.0 0.0 0.00 0.03 0.00 93 986.9
20260904141602 57 239 0.0 0.0 0.00 0.03 0.00 93 986.7
20260904141055 57 239 0.0 0.0 0.00 0.03 0.00 94 986.8
20260904140554 57 239 0.0 0.0 0.00 0.03 0.00 94 986.7
20260904140054 57 239 0.0 0.0 0.00 0.03 0.00 93 986.7
20260904135555 57 239 0.0 0.0 0.00 0.03 0.00 93 986.7
20260904135053 57 239 0.0 0.0 0.00 0.03 0.00 93 986.6
20260904134552 57 239 0.0 0.0 0.00 0.03 0.00 93 986.6
20260904134050 57 239 0.0 0.0 0.00 0.03 0.00 93 986.6
20260904133551 57 239 0.0 0.0 0.00 0.03 0.00 93 986.5
20260904133050 57 239 0.0 0.0 0.00 0.03 0.00 93 986.4
20260904132551 57 239 0.0 0.0 0.00 0.03 0.00 92 986.4
20260904132049 57 239 0.0 0.0 0.00 0.03 0.00 92 986.4
20260904131548 57 239 0.0 0.0 0.00 0.03 0.00 92 986.3
20260904131047 57 239 0.0 0.0 0.00 0.03 0.00 92 986.2
20260904130550 58 239 0.0 0.0 0.00 0.03 0.00 92 986.2
20260904130047 58 239 0.0 0.0 0.00 0.03 0.00 92 986.2
20260904125546 58 239 0.0 0.0 0.00 0.03 0.00 92 986.2
20260904125046 58 239 0.0 0.0 0.00 0.03 0.00 92 986.3
20260904124557 58 239 0.0 0.0 0.00 0.03 0.00 93 986.1
20260904124048 58 239 0.0 0.0 0.00 0.03 0.00 93 986.2
20260904123547 58 239 0.0 0.0 0.00 0.03 0.00 93 986.2
20260904123045 58 239 0.0 0.0 0.00 0.03 0.00 93 986.2
20260904122545 58 239 0.0 0.0 0.00 0.03 0.00 92 986.3
20260904122045 58 239 0.0 0.0 0.00 0.03 0.00 92 986.2
20260904121545 58 239 0.0 0.0 0.00 0.03 0.00 92 986.1
20260904121044 58 239 0.0 0.0 0.00 0.03 0.00 92 986.0
20260904120552 58 239 0.0 0.0 0.00 0.03 0.00 92 986.0
20260904120048 58 239 0.0 0.0 0.00 0.03 0.00 92 986.0
20260904115544 58 239 0.0 0.0 0.00 0.03 0.00 92 986.0
20260904115045 58 239 0.0 0.0 0.00 0.03 0.00 92 986.0
20260904114546 58 239 0.0 0.0 0.00 0.03 0.00 91 986.1
20260904114043 58 239 0.0 0.0 0.00 0.03 0.00 91 986.0
20260904113542 58 239 0.0 0.0 0.00 0.03 0.00 91 986.0
20260904112541 58 239 0.0 0.0 0.00 0.03 0.00 91 986.0
20260904112042 59 239 0.0 0.0 0.00 0.03 0.00 91 986.1
20260904111540 59 239 0.0 0.0 0.00 0.03 0.00 91 986.0
20260904111040 59 239 0.0 0.0 0.00 0.03 0.00 91 985.9
20260904110540 59 239 0.0 0.0 0.00 0.03 0.00 91 985.9
20260904110040 59 239 0.0 0.0 0.00 0.03 0.00 90 985.9
20260904105539 59 239 0.0 0.0 0.00 0.03 0.00 91 985.9
20260904105038 59 239 0.0 0.0 0.00 0.03 0.00 91 986.0
20260904104539 59 239 0.0 0.0 0.00 0.03 0.00 91 986.0
20260904104038 59 239 0.0 0.0 0.00 0.03 0.00 91 985.9
20260904103541 59 239 0.0 0.0 0.00 0.03 0.00 91 986.0
20260904103042 59 239 0.0 0.0 0.00 0.03 0.00 91 985.9
20260904102539 59 239 0.0 0.0 0.00 0.03 0.00 91 985.9
20260904102038 59 239 0.0 0.0 0.00 0.03 0.00 91 986.0
20260904101538 59 239 0.0 0.0 0.00 0.03 0.00 91 986.0
20260904101038 59 239 0.0 0.0 0.00 0.03 0.00 91 985.9
20260904100540 59 239 0.0 0.0 0.00 0.03 0.00 91 985.9
20260904100038 59 239 0.0 0.0 0.00 0.03 0.00 91 986.0
20260904095538 59 239 0.0 0.0 0.00 0.03 0.00 91 985.9
20260904095039 59 239 0.0 0.0 0.00 0.03 0.00 90 985.9
20260904094545 59 239 0.0 0.0 0.00 0.03 0.00 90 985.9
20260904094036 59 239 0.0 0.0 0.00 0.03 0.00 90 985.8
20260904093540 59 239 0.0 0.0 0.00 0.03 0.00 90 985.8
20260904093036 60 239 0.0 0.0 0.00 0.03 0.00 90 985.8
20260904092535 60 239 0.0 0.0 0.00 0.03 0.00 90 985.9
20260904092034 60 239 0.0 0.0 0.00 0.03 0.00 89 986.0
20260904091535 60 239 0.0 0.0 0.00 0.03 0.00 89 985.9
20260904091034 60 239 0.0 0.0 0.00 0.03 0.00 88 985.9
20260904090534 60 239 0.0 0.0 0.00 0.03 0.00 88 986.0
20260904090032 60 239 0.0 0.0 0.00 0.03 0.00 88 986.1
20260904085531 60 239 0.0 0.0 0.00 0.03 0.00 88 986.1
20260904085033 60 239 0.0 0.0 0.00 0.03 0.00 88 986.2
20260904084530 60 239 0.0 0.0 0.00 0.03 0.00 88 986.2
20260904084029 61 239 0.0 0.0 0.00 0.03 0.00 88 986.3
20260904083526 61 239 0.0 0.0 0.00 0.03 0.00 88 986.4
20260904083026 61 239 0.0 0.0 0.00 0.03 0.00 88 986.4
20260904082525 61 239 0.0 0.0 0.00 0.03 0.00 88 986.5
20260904082025 61 239 0.0 0.0 0.00 0.03 0.00 89 986.5
20260904081525 61 239 0.0 0.0 0.00 0.03 0.00 88 986.4
20260904081024 61 239 0.0 0.0 0.00 0.03 0.00 87 986.5
20260904080523 61 239 0.0 0.0 0.00 0.03 0.00 87 986.4
20260904080023 61 239 0.0 0.0 0.00 0.03 0.00 86 986.4
20260904075523 61 239 0.0 0.0 0.00 0.03 0.00 87 986.6
20260904075023 61 239 0.0 0.0 0.00 0.03 0.00 87 986.5
20260904074526 61 239 0.0 0.0 0.00 0.03 0.00 87 986.5
20260904074021 61 239 0.0 0.0 0.00 0.03 0.00 87 986.4
20260904073520 61 239 0.0 0.0 0.00 0.03 0.00 87 986.3
20260904073020 61 239 0.0 0.0 0.00 0.03 0.00 86 986.3
20260904072520 62 239 0.0 0.0 0.00 0.03 0.00 85 986.2
20260904072018 62 239 0.0 0.0 0.00 0.03 0.00 86 986.1
20260904071522 62 239 0.0 1.0 0.00 0.03 0.00 86 986.0
20260904071020 62 239 0.0 1.0 0.00 0.03 0.00 86 986.1
20260904070515 62 239 0.0 0.0 0.00 0.03 0.00 86 985.9
20260904070018 62 239 0.0 0.0 0.00 0.03 0.00 86 986.0
20260904065515 62 239 0.0 0.0 0.00 0.03 0.03 86 986.0
20260904065015 62 239 0.0 0.0 0.00 0.03 0.03 86 986.0
20260904064515 62 239 0.0 0.0 0.00 0.03 0.03 86 985.9
20260904064017 62 239 0.0 0.0 0.00 0.03 0.03 86 985.9
20260904063515 62 239 0.0 0.0 0.00 0.03 0.03 86 985.9
20260904063015 62 239 0.0 0.0 0.00 0.03 0.03 86 985.9
20260904062515 62 239 0.0 0.0 0.00 0.03 0.03 86 985.8
20260904062014 62 239 0.0 0.0 0.00 0.03 0.03 85 985.9
20260904061514 62 239 0.0 0.0 0.00 0.03 0.03 85 985.9
20260904061017 62 239 0.0 0.0 0.00 0.03 0.03 85 985.8
20260904060514 63 239 0.0 0.0 0.00 0.03 0.03 85 985.7
20260904060014 63 239 0.0 0.0 0.00 0.03 0.03 85 985.7
20260904055513 63 239 0.0 0.0 0.00 0.03 0.03 84 985.8
20260904055013 63 239 0.0 0.0 0.00 0.03 0.03 85 985.7
20260904054518 63 239 0.0 0.0 0.00 0.03 0.03 84 985.7
20260904054012 63 239 0.0 2.0 0.00 0.03 0.03 85 985.7
20260904053513 63 239 0.0 2.0 0.00 0.03 0.03 84 985.7
20260904053014 63 239 1.0 2.0 0.00 0.03 0.03 84 985.9
20260904052513 63 239 1.0 2.0 0.00 0.03 0.03 84 986.1
20260904052013 63 239 1.0 2.0 0.00 0.03 0.03 83 986.1
20260904051518 64 239 0.0 3.0 0.00 0.03 0.03 83 986.1
20260904051012 64 239 1.0 3.0 0.00 0.03 0.03 83 986.1
20260904050512 64 239 1.0 3.0 0.00 0.03 0.03 83 986.1
20260904050012 64 239 0.0 3.0 0.00 0.03 0.03 83 986.1
20260904045512 64 239 0.0 2.0 0.00 0.03 0.03 84 986.1
20260904045012 64 190 0.0 0.0 0.00 0.03 0.03 84 986.2
20260904044516 64 190 0.0 0.0 0.00 0.03 0.03 83 986.2
20260904044011 65 190 0.0 0.0 0.00 0.03 0.03 83 986.0
20260904043511 65 190 0.0 0.0 0.00 0.03 0.03 84 986.1
20260904043012 65 190 0.0 0.0 0.00 0.03 0.03 84 985.9
20260904042513 65 190 0.0 0.0 0.00 0.03 0.03 83 985.9
20260904042012 65 190 0.0 0.0 0.00 0.03 0.03 83 986.0
20260904041510 65 190 0.0 0.0 0.00 0.03 0.03 83 985.9
20260904041012 65 190 0.0 0.0 0.00 0.03 0.03 82 986.0
20260904040513 65 190 0.0 0.0 0.00 0.03 0.03 82 986.0
20260904040014 65 190 0.0 0.0 0.00 0.03 0.03 82 985.9
20260904035513 66 190 0.0 0.0 0.00 0.03 0.03 82 985.8
20260904035010 66 190 0.0 0.0 0.00 0.03 0.03 81 985.8
20260904034510 66 190 0.0 0.0 0.00 0.03 0.03 81 985.8
20260904034012 66 190 0.0 0.0 0.00 0.03 0.03 81 985.8
20260904033511 66 190 0.0 0.0 0.00 0.03 0.03 81 985.6
20260904033009 66 190 0.0 0.0 0.00 0.03 0.03 81 985.6
20260904032508 67 190 0.0 0.0 0.00 0.03 0.03 80 985.6
20260904032010 67 190 0.0 0.0 0.00 0.03 0.03 80 985.6
20260904031508 67 190 0.0 0.0 0.00 0.03 0.03 80 985.4
20260904031008 67 190 0.0 0.0 0.00 0.03 0.03 80 985.3
20260904030508 68 190 0.0 0.0 0.00 0.03 0.03 79 985.3
20260904030008 68 190 0.0 0.0 0.00 0.03 0.03 79 985.2
20260904025508 68 190 0.0 1.0 0.00 0.03 0.03 78 985.2
20260904025008 68 190 0.0 2.0 0.00 0.03 0.03 78 985.2
20260904024507 68 190 0.0 2.0 0.00 0.03 0.03 78 985.2
20260904024006 68 190 0.0 3.0 0.00 0.03 0.03 77 985.2
20260904023506 69 190 1.0 3.0 0.00 0.03 0.03 77 985.2
20260904023007 69 190 1.0 3.0 0.00 0.03 0.03 77 985.2
20260904022507 69 190 1.0 3.0 0.00 0.03 0.03 76 985.2
20260904022007 70 190 1.0 4.0 0.00 0.03 0.03 76 985.2
20260904021506 70 190 1.0 5.0 0.00 0.03 0.03 75 985.1
20260904021007 70 190 2.0 5.0 0.00 0.03 0.03 74 985.1
20260904020506 71 192 2.0 4.0 0.00 0.03 0.03 73 985.1
20260904020006 71 193 1.0 4.0 0.00 0.03 0.03 72 985.1
20260904015505 71 193 2.0 4.0 0.00 0.03 0.03 72 985.1
20260904015007 71 193 2.0 4.0 0.00 0.03 0.03 71 985.1
20260904014505 72 193 2.0 4.0 0.00 0.03 0.03 70 985.1
20260904014004 72 192 2.0 5.0 0.00 0.03 0.03 70 985.2
20260904013503 72 193 2.0 6.0 0.00 0.03 0.03 70 985.2
20260904013006 72 188 2.0 6.0 0.00 0.03 0.03 70 985.3
20260904012506 72 190 3.0 6.0 0.00 0.03 0.03 70 985.3
20260904012002 72 190 3.0 6.0 0.00 0.03 0.03 70 985.4
20260904011504 73 183 3.0 6.0 0.00 0.03 0.03 70 985.5
20260904011003 73 179 3.0 7.0 0.00 0.03 0.03 70 985.5
20260904010502 73 183 3.0 8.0 0.00 0.03 0.03 69 985.5
20260904010002 73 163 5.0 8.0 0.00 0.03 0.03 69 985.6
20260904005600 73 197 3.0 6.0 0.00 0.03 0.03 69 985.5
20260904005059 73 184 4.0 8.0 0.00 0.03 0.03 68 985.5
20260904004603 74 215 5.0 8.0 0.00 0.03 0.03 68 985.5
20260904004059 74 190 3.0 10.0 0.00 0.03 0.03 68 985.6
20260904003558 74 182 4.0 10.0 0.00 0.03 0.03 67 985.5
20260904003102 74 165 5.0 9.0 0.00 0.03 0.03 67 985.5
20260904002559 74 190 4.0 9.0 0.00 0.03 0.03 66 985.5
20260904002100 75 179 6.0 9.0 0.00 0.03 0.03 66 985.6
20260904001557 75 173 5.0 9.0 0.00 0.03 0.03 65 985.5
20260904001056 75 167 4.0 8.0 0.00 0.03 0.03 65 985.5
20260904000559 75 158 6.0 10.0 0.00 0.03 0.03 63 985.6
20260904000138 76 153 6.0 9.0 0.00 0.03 0.03 63 985.5
20260903235555 76 175 5.0 10.0 0.00 0.03 0.03 62 985.5
20260903235056 77 180 5.0 10.0 0.00 0.03 0.03 62 985.6
20260903234555 77 227 4.0 9.0 0.00 0.03 0.03 62 985.5
20260903234056 77 203 4.0 8.0 0.00 0.03 0.03 59 985.7
20260903233554 77 199 5.0 9.0 0.00 0.03 0.03 58 985.6
20260903233055 78 195 4.0 10.0 0.00 0.03 0.03 59 985.6
20260903232555 77 195 4.0 10.0 0.00 0.03 0.03 59 985.6
20260903232057 77 162 6.0 12.0 0.00 0.03 0.03 60 985.7
20260903231601 78 149 4.0 8.0 0.00 0.03 0.03 59 985.7
20260903231052 78 185 5.0 11.0 0.00 0.03 0.03 60 985.7
20260903230552 77 209 6.0 11.0 0.00 0.03 0.03 60 985.8
20260903225556 77 150 6.0 11.0 0.00 0.03 0.03 58 985.9
20260903225052 78 173 7.0 11.0 0.00 0.03 0.03 58 985.9
20260903224555 78 180 7.0 11.0 0.00 0.03 0.03 58 986.0
20260903224053 78 193 7.0 12.0 0.00 0.03 0.03 58 986.0
20260903223549 78 190 6.0 11.0 0.00 0.03 0.03 57 986.0
20260903223050 78 173 6.0 11.0 0.00 0.03 0.03 57 985.9
20260903222555 78 215 5.0 10.0 0.00 0.03 0.03 57 986.0
20260903222050 78 182 5.0 10.0 0.00 0.03 0.03 57 986.0
20260903221552 78 195 6.0 9.0 0.00 0.03 0.03 57 986.0
20260903221049 79 193 6.0 9.0 0.00 0.03 0.03 57 986.1
20260903220549 79 167 5.0 9.0 0.00 0.03 0.03 55 986.1
20260903220106 79 206 5.0 10.0 0.00 0.03 0.03 55 986.2
20260903215549 78 198 4.0 9.0 0.00 0.03 0.03 57 986.3
20260903215050 79 223 5.0 9.0 0.00 0.03 0.03 56 986.3
20260903214553 79 208 4.0 10.0 0.00 0.03 0.03 56 986.3
20260903214048 78 205 5.0 10.0 0.00 0.03 0.03 57 986.3
20260903213548 79 182 5.0 10.0 0.00 0.03 0.03 56 986.3
20260903213050 78 177 5.0 11.0 0.00 0.03 0.03 57 986.5
20260903212546 78 136 6.0 11.0 0.00 0.03 0.03 57 986.4
20260903212046 78 189 6.0 12.0 0.00 0.03 0.03 57 986.4
20260903211646 78 207 5.0 13.0 0.00 0.03 0.03 58 986.4
20260903211045 78 219 6.0 13.0 0.00 0.03 0.03 58 986.5
20260903210545 78 221 5.0 9.0 0.00 0.03 0.03 59 986.4
20260903210049 78 155 6.0 11.0 0.00 0.03 0.03 59 986.6
20260903205544 78 148 5.0 11.0 0.00 0.03 0.03 59 986.5
20260903205044 78 195 5.0 10.0 0.00 0.03 0.03 60 986.6
20260903204545 79 150 4.0 10.0 0.00 0.03 0.03 60 986.7
20260903204042 78 215 6.0 10.0 0.00 0.03 0.03 60 986.7
20260903203545 78 185 4.0 10.0 0.00 0.03 0.03 60 986.7
20260903203044 78 168 5.0 10.0 0.00 0.03 0.03 61 986.7
20260903202541 78 146 5.0 9.0 0.00 0.03 0.03 61 986.7
20260903202041 77 182 4.0 9.0 0.00 0.03 0.03 63 986.7
20260903201541 77 215 4.0 9.0 0.00 0.03 0.03 62 986.8
20260903201040 77 188 5.0 15.0 0.00 0.03 0.03 62 986.8
20260903200540 78 144 6.0 11.0 0.00 0.03 0.03 62 986.8
20260903200040 77 188 4.0 11.0 0.00 0.03 0.03 62 986.9
20260903195539 77 194 5.0 11.0 0.00 0.03 0.03 62 986.9
20260903195039 77 197 5.0 13.0 0.00 0.03 0.03 63 987.0
20260903194547 77 171 5.0 13.0 0.00 0.03 0.03 62 987.1
20260903194036 77 202 3.0 12.0 0.00 0.03 0.03 63 987.2
20260903193536 78 163 6.0 12.0 0.00 0.03 0.03 61 987.1
20260903193042 78 169 6.0 11.0 0.00 0.03 0.03 60 987.1
20260903192536 78 140 6.0 11.0 0.00 0.03 0.03 61 987.0
20260903192039 78 159 5.0 10.0 0.00 0.03 0.03 60 987.1
20260903191543 78 183 4.0 16.0 0.00 0.03 0.03 58 987.2
20260903191034 78 216 5.0 16.0 0.00 0.03 0.03 57 987.2
20260903190532 78 152 6.0 10.0 0.00 0.03 0.03 57 987.4
20260903190037 78 209 5.0 8.0 0.00 0.03 0.03 56 987.4
20260903185531 78 182 3.0 13.0 0.00 0.03 0.03 57 987.3
20260903185130 77 177 7.0 13.0 0.00 0.03 0.03 57 987.4
20260903184529 77 219 4.0 10.0 0.00 0.03 0.03 57 987.4
20260903184028 77 169 3.0 9.0 0.00 0.03 0.03 59 987.6
20260903183527 76 186 5.0 10.0 0.00 0.03 0.03 59 987.6
20260903183026 76 223 5.0 10.0 0.00 0.03 0.03 60 987.6
20260903182525 76 182 3.0 11.0 0.01 0.03 0.03 62 987.6
20260903182023 75 236 2.0 7.0 0.01 0.03 0.03 64 987.6
20260903181535 75 180 3.0 7.0 0.01 0.03 0.03 62 987.7
20260903181021 75 183 4.0 10.0 0.01 0.03 0.03 63 987.7
20260903180520 76 190 5.0 10.0 0.01 0.03 0.03 63 987.7
20260903180019 76 181 4.0 9.0 0.01 0.03 0.03 64 987.6
20260903175517 74 130 3.0 9.0 0.01 0.03 0.03 64 987.6
20260903175016 74 174 1.0 6.0 0.01 0.03 0.03 64 987.7
20260903174515 74 174 4.0 6.0 0.01 0.03 0.03 64 987.6
20260903174014 73 182 1.0 6.0 0.01 0.03 0.03 65 987.7
20260903173512 73 178 2.0 10.0 0.01 0.03 0.03 66 987.7
20260903173011 73 169 4.0 7.0 0.01 0.03 0.03 66 987.8